TimeCDT,TemperatureF,Dew PointF,Humidity,Sea Level PressureIn,VisibilityMPH,Wind Direction,Wind SpeedMPH,Gust SpeedMPH,PrecipitationIn,Events,Conditions,WindDirDegrees,DateUTC
12:07 AM,55.4,53.6,94,29.75,4.0,SSW,4.6,-,0.04,Rain-Thunderstorm,Rain,200,2013-04-08 05:07:00
12:22 AM,55.4,53.6,94,29.75,4.0,South,5.8,-,0.08,Rain,Light Rain,180,2013-04-08 05:22:00
12:48 AM,55.4,53.6,94,29.72,5.0,East,5.8,-,0.11,Rain-Thunderstorm,Light Rain,100,2013-04-08 05:48:00
12:55 AM,55.0,54.0,96,29.71,4.0,ESE,6.9,-,0.13,Rain-Thunderstorm,Rain,110,2013-04-08 05:55:00
1:00 AM,55.4,53.6,94,29.70,2.5,East,8.1,-,0.02,Rain,Rain,100,2013-04-08 06:00:00
1:23 AM,55.4,53.6,94,29.67,3.0,East,8.1,-,0.12,Rain,Rain,100,2013-04-08 06:23:00
1:55 AM,55.0,55.0,100,29.65,3.0,ESE,10.4,-,0.20,Rain,Rain,120,2013-04-08 06:55:00
1:58 AM,55.4,55.4,100,29.64,2.0,ESE,10.4,-,0.02,Rain,Heavy Rain,120,2013-04-08 06:58:00
2:06 AM,55.4,55.4,100,29.62,3.0,South,11.5,-,0.08,Rain,Light Rain,180,2013-04-08 07:06:00
2:11 AM,55.4,55.4,100,29.64,5.0,South,12.7,17.3,0.08,Rain,Light Rain,190,2013-04-08 07:11:00
2:33 AM,55.4,55.4,100,29.61,9.0,South,12.7,-,0.08,,Overcast,180,2013-04-08 07:33:00
2:44 AM,55.4,55.4,100,29.63,10.0,SSW,15.0,-,0.08,,Overcast,210,2013-04-08 07:44:00
2:55 AM,57.0,55.9,96,29.64,10.0,WSW,12.7,28.8,0.08,,Overcast,240,2013-04-08 07:55:00
3:28 AM,55.4,53.6,94,29.64,10.0,WSW,10.4,17.3,N/A,,Overcast,240,2013-04-08 08:28:00
3:30 AM,55.4,53.6,94,29.64,10.0,WSW,8.1,16.1,N/A,,Overcast,240,2013-04-08 08:30:00
3:37 AM,55.4,53.6,94,29.64,10.0,WSW,11.5,16.1,N/A,,Overcast,240,2013-04-08 08:37:00
3:55 AM,55.0,54.0,96,29.65,10.0,SW,11.5,-,N/A,,Overcast,230,2013-04-08 08:55:00
4:03 AM,55.4,53.6,94,29.65,10.0,SW,10.4,-,N/A,,Overcast,230,2013-04-08 09:03:00
4:14 AM,55.4,53.6,94,29.65,10.0,SW,10.4,-,N/A,,Overcast,220,2013-04-08 09:14:00
4:47 AM,53.6,51.8,94,29.64,10.0,SW,10.4,-,N/A,,Scattered Clouds,230,2013-04-08 09:47:00
4:55 AM,54.0,52.0,93,29.64,10.0,SW,10.4,-,N/A,,Partly Cloudy,230,2013-04-08 09:55:00
5:19 AM,53.6,51.8,94,29.66,10.0,SW,9.2,-,N/A,,Mostly Cloudy,230,2013-04-08 10:19:00
5:55 AM,53.1,51.1,93,29.67,10.0,WSW,9.2,-,N/A,,Scattered Clouds,240,2013-04-08 10:55:00
6:55 AM,52.0,50.0,93,29.70,9.0,WSW,5.8,-,N/A,,Clear,240,2013-04-08 11:55:00
7:39 AM,53.6,51.8,94,29.73,10.0,West,3.5,-,N/A,,Overcast,280,2013-04-08 12:39:00
7:55 AM,54.0,52.0,93,29.74,10.0,Calm,Calm,-,N/A,,Mostly Cloudy,0,2013-04-08 12:55:00
8:29 AM,55.4,51.8,88,29.75,10.0,Calm,Calm,-,N/A,,Mostly Cloudy,0,2013-04-08 13:29:00
8:55 AM,55.9,53.1,90,29.76,10.0,Calm,Calm,-,N/A,,Overcast,0,2013-04-08 13:55:00
9:36 AM,57.2,53.6,88,29.77,10.0,Calm,Calm,-,N/A,,Overcast,0,2013-04-08 14:36:00
9:55 AM,57.9,55.0,90,29.77,10.0,Calm,Calm,-,N/A,,Overcast,0,2013-04-08 14:55:00
10:55 AM,60.1,57.0,90,29.79,10.0,Calm,Calm,-,0.00,,Overcast,0,2013-04-08 15:55:00
11:47 AM,62.6,57.2,82,29.78,10.0,ESE,4.6,-,N/A,,Mostly Cloudy,110,2013-04-08 16:47:00
11:55 AM,64.0,59.0,84,29.78,10.0,SE,6.9,-,N/A,,Mostly Cloudy,140,2013-04-08 16:55:00
12:13 PM,64.4,59.0,83,29.79,10.0,Calm,Calm,-,N/A,,Mostly Cloudy,0,2013-04-08 17:13:00
12:55 PM,66.9,59.0,76,29.77,10.0,West,8.1,-,N/A,,Overcast,260,2013-04-08 17:55:00
1:50 PM,66.2,59.0,78,29.77,10.0,South,9.2,-,N/A,,Overcast,190,2013-04-08 18:50:00
1:55 PM,66.9,59.0,76,29.77,10.0,South,9.2,-,N/A,,Overcast,170,2013-04-08 18:55:00
2:55 PM,70.0,59.0,68,29.76,10.0,South,8.1,-,N/A,,Mostly Cloudy,180,2013-04-08 19:55:00
3:20 PM,69.8,57.2,64,29.76,10.0,South,8.1,-,N/A,,Overcast,180,2013-04-08 20:20:00
3:55 PM,69.1,60.1,73,29.76,10.0,South,9.2,-,N/A,,Scattered Clouds,180,2013-04-08 20:55:00
4:55 PM,70.0,59.0,68,29.76,10.0,SSE,5.8,-,N/A,,Mostly Cloudy,150,2013-04-08 21:55:00
5:34 PM,69.8,60.8,73,29.75,10.0,ESE,8.1,-,N/A,,Overcast,110,2013-04-08 22:34:00
5:55 PM,69.1,60.1,73,29.76,9.0,ESE,9.2,-,N/A,,Overcast,120,2013-04-08 22:55:00
6:06 PM,69.8,60.8,73,29.76,9.0,ESE,6.9,-,N/A,,Overcast,110,2013-04-08 23:06:00
6:55 PM,68.0,60.1,76,29.76,10.0,ESE,8.1,-,N/A,,Mostly Cloudy,110,2013-04-08 23:55:00
7:55 PM,64.9,59.0,81,29.78,10.0,East,5.8,-,N/A,,Partly Cloudy,80,2013-04-09 00:55:00
8:55 PM,63.0,59.0,87,29.80,10.0,ENE,5.8,-,N/A,,Clear,70,2013-04-09 01:55:00
9:55 PM,63.0,59.0,87,29.81,9.0,East,8.1,-,N/A,,Mostly Cloudy,100,2013-04-09 02:55:00
10:55 PM,63.0,59.0,87,29.81,10.0,East,8.1,-,N/A,,Overcast,100,2013-04-09 03:55:00
11:55 PM,63.0,59.0,87,29.79,10.0,East,8.1,-,N/A,,Overcast,100,2013-04-09 04:55:00